Showing default

QIANFAN-72, 62802

Orbit data source: Space-Track

QIANFAN-72, 62802 is a Chinese payload satellite in LEO that was launched on Thu, 23 Jan 2025 UTC via a CHANG ZHENG 6A launch vehicle from the Taiyaun Space Center, China (TSC). Payload-class satellites include a variety of spacecraft equipped with specific instruments for various scientific and technological missions. These include communications satellites like Starlink; space stations such as the ISS; scientific satellites like the Hubble; Earth observation satellites from companies like Planet Labs, Umbra, and HawkEye 360; GPS; miniature CubeSats for education and research; and military/defense satellites.

Loading next visibility...
Identifier
62802, 2025-016T
Orbit
LEO
Country
Flag of CNCN / PRC
Related business
Manufacturer
SECM
Mission
Operational Commercial Communications
Bus & Motor
QIANFAN, Unknown motor
Mass
267 kg wet, ~267 kg dry
Launch date (UTC)
2025-01-23 (9 months ago)
Launch vehicle
CHANG ZHENG 6A
Launch site
Taiyaun Space Center, China (TSC)
Object type
Payload
Rocket body
Debris
Shape & HBR
Box + 1 Pan, 1.2 m
Radar Cross Section
13.200 m², Large (>1 m²)

Expand to show TLE details & history
Last TLE update: 6 hours ago

TLE from 6 hours ago
0 QIANFAN-72
1 62802U 25016T   25310.73116207  .00000051  00000-0  59270-4 0  9993
2 62802  88.9730 106.8247 0020692  99.6309 260.7181 13.50974622 42367
Epoch: 2025-11-06T17:32Z
TLE epoch observation values (Epoch: 2025-11-06T17:32:52.402Z)
Latitude
-0.00005°
Longitude
157.42108°
Altitude
1,074.145 km
Speed
7.314 km/s
True Right ascension
07h 07m 17s
True Declination
0° 00' 00"
Sunlit
Object was in daylight at epoch
Visualization orbit readout
Latitude
Unknown
Longitude
Unknown
Altitude
Unknown
Speed
Unknown
Apparent Right ascension
Unknown
Apparent Declination
Unknown
Sunlit
N/A
Visualization observer readout
Local Sidereal Time
19:28:52
Azimuth
Unknown
Elevation
Unknown
Doppler factor
Unknown
Orbital elements
Apogee altitude
1,081.129 km
Perigee altitude
1,050.323 km
Semi-major axis
7,443.863 km
Eccentricity
0.00207
Inclination
88.973°
RAAN
106.8247°
Arg. of periapsis
99.6309°
True anomaly
260.48419°
Mean anomaly
260.7181°
Eccentric anomaly
260.60114°
Mean motion
3.37945 °/min
Orbital period
106.53 mins
BSTAR
0.00005927
Loading maneuver chart data...
Computing Atmospheric mass density...
Loading historical data...
Loading historical data...
Loading historical data...
Loading historical data...
Loading historical data...
Loading historical data...
Loading historical data...

Documentation

Showing up to 5 results
|